User: anonymous   Login
Location: Chevoux
(46.3801°N, 4.9476°E)
Time: 21:30:18
(UTC+00:00)
Language:

Cosmos 44 - Orbit

View from above orbital plane
View from above orbital plane
View from above satellite
View from above satellite

Ground track
Ground track

The orbit data is extracted from the following two-line orbital elements,

1 00876U 64053A   21104.48914166 -.00000045  00000-0  15877-4 0  9998
2 00876  65.0588 139.1530 0155780 281.8829  76.4840 14.63791227 11936
Epoch (UTC): 14 April 2021 11:44:21
Eccentricity: 0.0155780
inclination: 65.0588°
perigee height: 571 km
apogee height: 791 km
right ascension of ascending node: 139.1530°
argument of perigee: 281.8829°
revolutions per day: 14.63791227
mean anomaly at epoch: 76.4840°
orbit number at epoch: 1193

The dashed part of the orbit path shows where the satellite is in the earth's shadow,  

DLR